Location: Unspecified
(0.0000°N, 0.0000°E)
Time: 07:29:19
(UTC+00:00)

Oscar 14 - Pass Details

Date: 18 June 2023
Orbit: 776 x 790 km, 98.9° (Epoch: 28 September)

Event Time Altitude Azimuth Distance (km) Brightness Sun altitude
Rises 05:26:32 0° 27° (NNE) 3,251 ? -7.9°
Reaches altitude 10° 05:28:58 10° 34° (NE) 2,324 ? -7.4°
Maximum altitude 05:33:45 40° 103° (ESE) 1,132 ? -6.3°
Drops below altitude 10° 05:38:32 10° 172° (S) 2,326 ? -5.2°
Sets 05:40:57 0° 179° (S) 3,255 ? -4.6°
